User: anonymous   Login
Location: Unspecified
(0.0000°N, 0.0000°E)
Time: 12:41:39
(UTC+00:00)
Language:

ICO F2 - Orbit

View from above orbital plane
View from above orbital plane
View from above satellite
View from above satellite

Ground track
Ground track

The orbit data is extracted from the following two-line orbital elements,

1 26857U 01026A   18200.33189961 +.00000021 +00000-0 +00000-0 0  9991
2 26857 044.8039 190.4235 0013956 059.9376 300.2205 03.92404643092317
Epoch (UTC): 19 July 2018 07:57:56
Eccentricity: 0.0013956
inclination: 44.8039°
perigee height: 10577 km
apogee height: 10624 km
right ascension of ascending node: 190.4235°
argument of perigee: 59.9376°
revolutions per day: 3.92404643
mean anomaly at epoch: 300.2205°
orbit number at epoch: 9231

The dashed part of the orbit path shows where the satellite is in the earth's shadow,  

DLR